Time,TemperatureF,DewpointF,PressureIn,WindDirection,WindDirectionDegrees,WindSpeedMPH,WindSpeedGustMPH,Humidity,HourlyPrecipIn,Conditions,Clouds,dailyrainin,SoftwareType,DateUTC
2013-04-24 00:02:00,44.6,37.5,30.02,NNE,20,17.0,20.0,76,0.00,,OVC012,0.00,VWS V14.01,2013-04-24 04:02:00,
2013-04-24 00:10:00,44.6,37.5,30.02,NNE,20,17.0,17.0,76,0.00,,OVC012,0.00,VWS V14.01,2013-04-24 04:10:00,
2013-04-24 00:18:00,44.6,37.5,30.02,NNE,20,17.0,17.0,76,0.00,,OVC012,0.00,VWS V14.01,2013-04-24 04:18:00,
2013-04-24 00:38:00,44.6,37.5,30.02,NNE,20,17.0,17.0,76,0.00,,OVC012,0.00,VWS V14.01,2013-04-24 04:38:00,
2013-04-24 00:49:00,44.6,37.5,30.02,NNE,20,17.0,17.0,76,0.00,,OVC012,0.00,VWS V14.01,2013-04-24 04:49:00,
2013-04-24 00:54:00,44.6,37.5,30.02,NNE,20,17.0,17.0,76,0.00,,OVC012,0.00,VWS V14.01,2013-04-24 04:54:00,
2013-04-24 00:56:00,44.6,37.5,30.00,North,360,19.0,19.0,76,0.00,,OVC014,0.00,VWS V14.01,2013-04-24 04:56:00,
2013-04-24 00:59:00,44.6,37.5,30.02,NNE,20,17.0,17.0,76,0.00,,OVC012,0.00,VWS V14.01,2013-04-24 04:59:00,
2013-04-24 01:04:00,44.6,37.5,30.00,North,360,19.0,19.0,76,0.00,,OVC014,0.00,VWS V14.01,2013-04-24 05:04:00,
2013-04-24 01:12:00,44.6,37.5,30.00,North,360,19.0,19.0,76,0.00,,OVC014,0.00,VWS V14.01,2013-04-24 05:12:00,
2013-04-24 01:17:00,44.6,37.5,30.00,North,360,19.0,19.0,76,0.00,,OVC014,0.00,VWS V14.01,2013-04-24 05:17:00,
2013-04-24 01:24:00,44.6,37.5,30.00,North,360,19.0,19.0,76,0.00,,OVC014,0.00,VWS V14.01,2013-04-24 05:24:00,
2013-04-24 01:32:00,44.6,37.5,30.00,North,360,19.0,19.0,76,0.00,,OVC014,0.00,VWS V14.01,2013-04-24 05:32:00,
2013-04-24 01:37:00,44.6,37.5,30.00,North,360,19.0,19.0,76,0.00,,OVC014,0.00,VWS V14.01,2013-04-24 05:37:00,
2013-04-24 01:49:00,44.6,37.5,30.00,North,360,19.0,19.0,76,0.00,,OVC014,0.00,VWS V14.01,2013-04-24 05:49:00,
2013-04-24 01:54:00,44.6,37.5,30.00,North,360,19.0,19.0,76,0.00,,OVC014,0.00,VWS V14.01,2013-04-24 05:54:00,
2013-04-24 01:56:00,44.6,37.5,29.97,North,360,16.0,16.0,76,0.00,,OVC014,0.00,VWS V14.01,2013-04-24 05:56:00,
2013-04-24 01:59:00,44.6,37.5,30.00,North,360,19.0,19.0,76,0.00,,OVC014,0.00,VWS V14.01,2013-04-24 05:59:00,
2013-04-24 02:04:00,44.6,37.5,29.97,North,360,16.0,16.0,76,0.00,,OVC014,0.00,VWS V14.01,2013-04-24 06:04:00,
2013-04-24 02:12:00,44.6,37.5,29.97,North,360,16.0,16.0,76,0.00,,OVC014,0.00,VWS V14.01,2013-04-24 06:12:00,
2013-04-24 02:25:00,44.6,37.5,29.97,North,360,16.0,16.0,76,0.00,,OVC014,0.00,VWS V14.01,2013-04-24 06:25:00,
2013-04-24 02:52:00,44.6,37.5,29.97,North,360,16.0,16.0,76,0.00,,OVC014,0.00,VWS V14.01,2013-04-24 06:52:00,
2013-04-24 02:56:00,44.6,37.5,29.95,North,360,19.0,19.0,76,0.00,,OVC014,0.00,VWS V14.01,2013-04-24 06:56:00,
2013-04-24 02:57:00,44.6,37.5,29.97,North,360,16.0,16.0,76,0.00,,OVC014,0.00,VWS V14.01,2013-04-24 06:57:00,
2013-04-24 03:02:00,44.6,37.5,29.95,North,360,19.0,19.0,76,0.00,,OVC014,0.00,VWS V14.01,2013-04-24 07:02:00,
2013-04-24 03:10:00,44.6,37.5,29.95,North,360,19.0,19.0,76,0.00,,OVC014,0.00,VWS V14.01,2013-04-24 07:10:00,
2013-04-24 03:25:00,44.6,37.5,29.95,North,360,19.0,19.0,76,0.00,,OVC014,0.00,VWS V14.01,2013-04-24 07:25:00,
2013-04-24 03:30:00,44.6,37.5,29.95,North,360,19.0,19.0,76,0.00,,OVC014,0.00,VWS V14.01,2013-04-24 07:30:00,
2013-04-24 03:42:00,44.6,37.5,29.95,North,360,19.0,19.0,76,0.00,,OVC014,0.00,VWS V14.01,2013-04-24 07:42:00,
2013-04-24 03:51:00,44.6,37.5,29.95,North,360,19.0,19.0,76,0.00,,OVC014,0.00,VWS V14.01,2013-04-24 07:51:00,
2013-04-24 03:55:00,44.6,37.5,29.95,North,360,19.0,19.0,76,0.00,,OVC014,0.00,VWS V14.01,2013-04-24 07:55:00,
2013-04-24 03:56:00,44.6,37.5,29.93,North,350,17.0,17.0,76,0.00,,OVC014,0.00,VWS V14.01,2013-04-24 07:56:00,
2013-04-24 04:00:00,44.6,37.5,29.93,North,350,17.0,19.0,76,0.00,,OVC014,0.00,VWS V14.01,2013-04-24 08:00:00,
2013-04-24 04:06:00,44.6,37.5,29.93,North,350,17.0,17.0,76,0.00,,OVC014,0.00,VWS V14.01,2013-04-24 08:06:00,
2013-04-24 04:15:00,44.6,37.5,29.93,North,350,17.0,17.0,76,0.00,,OVC014,0.00,VWS V14.01,2013-04-24 08:15:00,
2013-04-24 04:36:00,44.6,37.5,29.93,North,350,17.0,17.0,76,0.00,,OVC014,0.00,VWS V14.01,2013-04-24 08:36:00,
2013-04-24 04:51:00,44.6,37.5,29.93,North,350,17.0,17.0,76,0.00,,OVC014,0.00,VWS V14.01,2013-04-24 08:51:00,
2013-04-24 04:56:00,44.6,37.5,29.93,North,350,17.0,17.0,76,0.00,,OVC014,0.00,VWS V14.01,2013-04-24 08:56:00,
2013-04-24 05:01:00,44.6,39.1,29.96,NNW,330,12.0,12.0,81,0.00,,OVC014,0.00,VWS V14.01,2013-04-24 09:01:00,
2013-04-24 05:06:00,44.6,39.1,29.96,NNW,330,12.0,12.0,81,0.00,,OVC014,0.00,VWS V14.01,2013-04-24 09:06:00,
2013-04-24 05:21:00,44.6,39.1,29.96,NNW,330,12.0,12.0,81,0.00,,OVC014,0.00,VWS V14.01,2013-04-24 09:21:00,
2013-04-24 05:28:00,44.6,39.1,29.96,NNW,330,12.0,12.0,81,0.00,,OVC014,0.00,VWS V14.01,2013-04-24 09:28:00,
2013-04-24 05:38:00,44.6,39.1,29.96,NNW,330,12.0,12.0,81,0.00,,OVC014,0.00,VWS V14.01,2013-04-24 09:38:00,
2013-04-24 05:46:00,44.6,39.1,29.96,NNW,330,12.0,12.0,81,0.00,,OVC014,0.00,VWS V14.01,2013-04-24 09:46:00,
2013-04-24 05:51:00,44.6,39.1,29.96,NNW,330,12.0,12.0,81,0.00,,OVC014,0.00,VWS V14.01,2013-04-24 09:51:00,
2013-04-24 05:56:00,44.6,39.1,29.96,NNW,330,12.0,12.0,81,0.00,,OVC014,0.00,VWS V14.01,2013-04-24 09:56:00,
2013-04-24 06:01:00,44.6,39.1,29.97,North,350,11.0,11.0,81,0.00,,OVC014,0.00,VWS V14.01,2013-04-24 10:01:00,
2013-04-24 06:16:00,44.6,39.1,29.97,North,350,11.0,11.0,81,0.00,,OVC014,0.00,VWS V14.01,2013-04-24 10:16:00,
2013-04-24 06:28:00,44.6,39.1,29.97,North,350,11.0,11.0,81,0.00,,OVC014,0.00,VWS V14.01,2013-04-24 10:28:00,
2013-04-24 06:52:00,44.6,39.1,29.97,North,350,11.0,11.0,81,0.00,,OVC014,0.00,VWS V14.01,2013-04-24 10:52:00,
2013-04-24 06:56:00,44.6,39.1,30.00,NW,310,9.0,9.0,81,0.00,,OVC014,0.00,VWS V14.01,2013-04-24 10:56:00,
2013-04-24 06:57:00,44.6,39.1,29.97,North,350,11.0,11.0,81,0.00,,OVC014,0.00,VWS V14.01,2013-04-24 10:57:00,
2013-04-24 07:02:00,44.6,39.1,30.00,NW,310,9.0,9.0,81,0.00,,OVC014,0.00,VWS V14.01,2013-04-24 11:02:00,
2013-04-24 07:10:00,44.6,39.1,30.00,NW,310,9.0,9.0,81,0.00,,OVC014,0.00,VWS V14.01,2013-04-24 11:10:00,
2013-04-24 07:19:00,44.6,39.1,30.00,NW,310,9.0,9.0,81,0.00,,OVC014,0.00,VWS V14.01,2013-04-24 11:19:00,
2013-04-24 07:25:00,44.6,39.1,30.00,NW,310,9.0,9.0,81,0.00,,OVC014,0.00,VWS V14.01,2013-04-24 11:25:00,
2013-04-24 07:31:00,44.6,39.1,30.00,NW,310,9.0,9.0,81,0.00,,OVC014,0.00,VWS V14.01,2013-04-24 11:31:00,
2013-04-24 07:40:00,44.6,39.1,30.00,NW,310,9.0,9.0,81,0.00,,OVC014,0.00,VWS V14.01,2013-04-24 11:40:00,
2013-04-24 07:52:00,44.6,39.1,30.00,NW,310,9.0,9.0,81,0.00,,OVC014,0.00,VWS V14.01,2013-04-24 11:52:00,
2013-04-24 07:56:00,44.6,39.1,30.02,NNW,330,12.0,12.0,81,0.00,,OVC012,0.00,VWS V14.01,2013-04-24 11:56:00,
2013-04-24 07:57:00,44.6,39.1,30.00,NW,310,9.0,9.0,81,0.00,,OVC014,0.00,VWS V14.01,2013-04-24 11:57:00,
2013-04-24 08:02:00,44.6,39.1,30.02,NNW,330,12.0,12.0,81,0.00,,OVC012,0.00,VWS V14.01,2013-04-24 12:02:00,
2013-04-24 08:16:00,44.6,39.1,30.02,NNW,330,12.0,12.0,81,0.00,,OVC012,0.00,VWS V14.01,2013-04-24 12:16:00,
2013-04-24 08:44:00,44.6,39.1,30.02,NNW,330,12.0,12.0,81,0.00,,OVC012,0.00,VWS V14.01,2013-04-24 12:44:00,
2013-04-24 08:51:00,44.6,39.1,30.02,NNW,330,12.0,12.0,81,0.00,,OVC012,0.00,VWS V14.01,2013-04-24 12:51:00,
2013-04-24 08:56:00,44.6,39.1,30.02,NNW,330,12.0,12.0,81,0.00,,OVC012,0.00,VWS V14.01,2013-04-24 12:56:00,
2013-04-24 09:01:00,46.4,39.3,30.01,NW,320,9.0,9.0,76,0.00,,OVC014,0.00,VWS V14.01,2013-04-24 13:01:00,
2013-04-24 09:09:00,46.4,39.3,30.01,NW,320,9.0,9.0,76,0.00,,OVC014,0.00,VWS V14.01,2013-04-24 13:09:00,
2013-04-24 09:19:00,46.4,39.3,30.01,NW,320,9.0,9.0,76,0.00,,OVC014,0.00,VWS V14.01,2013-04-24 13:19:00,
2013-04-24 09:25:00,50.0,39.1,30.00,WNW,300,9.0,9.0,66,0.00,,SCT014,0.00,VWS V14.01,2013-04-24 13:25:00,
2013-04-24 09:28:00,46.4,39.3,30.01,NW,320,9.0,9.0,76,0.00,,SCT014,0.00,VWS V14.01,2013-04-24 13:28:00,
2013-04-24 09:33:00,50.0,39.1,30.00,WNW,300,9.0,9.0,66,0.00,,SCT014,0.00,VWS V14.01,2013-04-24 13:33:00,
2013-04-24 09:45:00,50.0,39.1,30.00,WNW,300,9.0,9.0,66,0.00,,SCT014,0.00,VWS V14.01,2013-04-24 13:45:00,
2013-04-24 09:50:00,50.0,39.1,30.00,WNW,300,9.0,9.0,66,0.00,,SCT014,0.00,VWS V14.01,2013-04-24 13:50:00,
2013-04-24 09:56:00,51.8,40.8,29.99,WNW,300,6.0,6.0,66,0.00,,CLR,0.00,VWS V14.01,2013-04-24 13:56:00,
2013-04-24 09:59:00,51.8,40.8,29.99,WNW,300,6.0,9.0,66,0.00,,CLR,0.00,VWS V14.01,2013-04-24 13:59:00,
2013-04-24 10:04:00,51.8,40.8,29.99,WNW,300,6.0,6.0,66,0.00,,CLR,0.00,VWS V14.01,2013-04-24 14:04:00,
2013-04-24 10:16:00,51.8,40.8,29.99,WNW,300,6.0,6.0,66,0.00,,CLR,0.00,VWS V14.01,2013-04-24 14:16:00,
2013-04-24 10:35:00,51.8,40.8,29.99,WNW,300,6.0,6.0,66,0.00,,CLR,0.00,VWS V14.01,2013-04-24 14:35:00,
2013-04-24 10:47:00,51.8,40.8,29.99,WNW,300,6.0,6.0,66,0.00,,CLR,0.00,VWS V14.01,2013-04-24 14:47:00,
2013-04-24 10:52:00,51.8,40.8,29.99,WNW,300,6.0,6.0,66,0.00,,CLR,0.00,VWS V14.01,2013-04-24 14:52:00,
2013-04-24 10:56:00,51.8,42.7,29.98,WSW,240,16.0,16.0,71,0.00,,CLR,0.00,VWS V14.01,2013-04-24 14:56:00,
2013-04-24 10:57:00,51.8,40.8,29.99,WNW,300,6.0,6.0,66,0.00,,CLR,0.00,VWS V14.01,2013-04-24 14:57:00,
2013-04-24 11:02:00,51.8,42.7,29.98,WSW,240,16.0,16.0,71,0.00,,CLR,0.00,VWS V14.01,2013-04-24 15:02:00,
2013-04-24 11:19:00,51.8,42.7,29.98,WSW,240,16.0,16.0,71,0.00,,CLR,0.00,VWS V14.01,2013-04-24 15:19:00,
2013-04-24 11:51:00,51.8,42.7,29.98,WSW,240,16.0,16.0,71,0.00,,CLR,0.00,VWS V14.01,2013-04-24 15:51:00,
2013-04-24 11:56:00,51.8,42.7,29.98,WSW,240,16.0,16.0,71,0.00,,CLR,0.00,VWS V14.01,2013-04-24 15:56:00,
2013-04-24 12:01:00,51.8,42.7,29.96,WSW,240,19.0,19.0,71,0.00,,CLR,0.00,VWS V14.01,2013-04-24 16:01:00,
2013-04-24 12:19:00,51.8,42.7,29.96,WSW,240,19.0,19.0,71,0.00,,CLR,0.00,VWS V14.01,2013-04-24 16:19:00,
2013-04-24 12:52:00,51.8,42.7,29.96,WSW,240,19.0,19.0,71,0.00,,CLR,0.00,VWS V14.01,2013-04-24 16:52:00,
2013-04-24 12:56:00,55.4,42.6,29.94,WSW,240,14.0,14.0,62,0.00,,CLR,0.00,VWS V14.01,2013-04-24 16:56:00,
2013-04-24 12:57:00,51.8,42.7,29.96,WSW,240,19.0,19.0,71,0.00,,CLR,0.00,VWS V14.01,2013-04-24 16:57:00,
2013-04-24 13:02:00,55.4,42.6,29.94,WSW,240,14.0,14.0,62,0.00,,CLR,0.00,VWS V14.01,2013-04-24 17:02:00,
2013-04-24 13:09:00,55.4,42.6,29.94,WSW,240,14.0,14.0,62,0.00,,CLR,0.00,VWS V14.01,2013-04-24 17:09:00,
2013-04-24 13:23:00,55.4,42.6,29.94,WSW,240,14.0,14.0,62,0.00,,CLR,0.00,VWS V14.01,2013-04-24 17:23:00,
2013-04-24 13:28:00,55.4,42.6,29.94,WSW,240,14.0,14.0,62,0.00,,CLR,0.00,VWS V14.01,2013-04-24 17:28:00,
2013-04-24 13:34:00,55.4,42.6,29.94,WSW,240,14.0,14.0,62,0.00,,CLR,0.00,VWS V14.01,2013-04-24 17:34:00,
2013-04-24 13:43:00,55.4,42.6,29.94,WSW,240,14.0,14.0,62,0.00,,CLR,0.00,VWS V14.01,2013-04-24 17:43:00,
2013-04-24 13:52:00,55.4,42.6,29.94,WSW,240,14.0,14.0,62,0.00,,CLR,0.00,VWS V14.01,2013-04-24 17:52:00,
2013-04-24 13:56:00,59.0,42.9,29.92,WSW,240,14.0,14.0,55,0.00,,CLR,0.00,VWS V14.01,2013-04-24 17:56:00,
2013-04-24 13:57:00,55.4,42.6,29.94,WSW,240,14.0,14.0,62,0.00,,CLR,0.00,VWS V14.01,2013-04-24 17:57:00,
2013-04-24 14:02:00,59.0,42.9,29.92,WSW,240,14.0,14.0,55,0.00,,CLR,0.00,VWS V14.01,2013-04-24 18:02:00,
2013-04-24 14:09:00,59.0,42.9,29.92,WSW,240,14.0,14.0,55,0.00,,CLR,0.00,VWS V14.01,2013-04-24 18:09:00,
2013-04-24 14:18:00,59.0,42.9,29.92,WSW,240,14.0,14.0,55,0.00,,CLR,0.00,VWS V14.01,2013-04-24 18:18:00,
2013-04-24 14:32:00,59.0,42.9,29.92,WSW,240,14.0,14.0,55,0.00,,CLR,0.00,VWS V14.01,2013-04-24 18:32:00,
2013-04-24 14:39:00,59.0,42.9,29.92,WSW,240,14.0,14.0,55,0.00,,CLR,0.00,VWS V14.01,2013-04-24 18:39:00,
2013-04-24 14:45:00,59.0,42.9,29.92,WSW,240,14.0,14.0,55,0.00,,CLR,0.00,VWS V14.01,2013-04-24 18:45:00,
2013-04-24 14:52:00,59.0,42.9,29.92,WSW,240,14.0,14.0,55,0.00,,CLR,0.00,VWS V14.01,2013-04-24 18:52:00,
2013-04-24 14:56:00,55.4,42.6,29.91,SW,230,12.0,12.0,62,0.00,,CLR,0.00,VWS V14.01,2013-04-24 18:56:00,
2013-04-24 14:57:00,59.0,42.9,29.92,WSW,240,14.0,14.0,55,0.00,,CLR,0.00,VWS V14.01,2013-04-24 18:57:00,
2013-04-24 15:02:00,55.4,42.6,29.91,SW,230,12.0,12.0,62,0.00,,CLR,0.00,VWS V14.01,2013-04-24 19:02:00,
2013-04-24 15:27:00,55.4,42.6,29.91,SW,230,12.0,12.0,62,0.00,,CLR,0.00,VWS V14.01,2013-04-24 19:27:00,
2013-04-24 15:51:00,55.4,42.6,29.91,SW,230,12.0,12.0,62,0.00,,CLR,0.00,VWS V14.01,2013-04-24 19:51:00,
2013-04-24 15:56:00,55.4,42.6,29.91,SW,230,12.0,12.0,62,0.00,,CLR,0.00,VWS V14.01,2013-04-24 19:56:00,
2013-04-24 16:01:00,55.4,44.6,29.91,SSW,210,11.0,11.0,67,0.00,,CLR,0.00,VWS V14.01,2013-04-24 20:01:00,
2013-04-24 16:18:00,55.4,44.6,29.91,SSW,210,11.0,11.0,67,0.00,,CLR,0.00,VWS V14.01,2013-04-24 20:18:00,
2013-04-24 16:28:00,55.4,44.6,29.91,SSW,210,11.0,11.0,67,0.00,,CLR,0.00,VWS V14.01,2013-04-24 20:28:00,
2013-04-24 16:48:00,55.4,44.6,29.91,SSW,210,11.0,11.0,67,0.00,,CLR,0.00,VWS V14.01,2013-04-24 20:48:00,
2013-04-24 16:53:00,55.4,44.6,29.91,SSW,210,11.0,11.0,67,0.00,,CLR,0.00,VWS V14.01,2013-04-24 20:53:00,
2013-04-24 16:56:00,55.4,44.6,29.90,SSW,210,13.0,13.0,67,0.00,,CLR,0.00,VWS V14.01,2013-04-24 20:56:00,
2013-04-24 16:58:00,55.4,44.6,29.91,SSW,210,11.0,11.0,67,0.00,,CLR,0.00,VWS V14.01,2013-04-24 20:58:00,
2013-04-24 17:03:00,55.4,44.6,29.90,SSW,210,13.0,13.0,67,0.00,,CLR,0.00,VWS V14.01,2013-04-24 21:03:00,
2013-04-24 17:09:00,55.4,44.6,29.90,SSW,210,13.0,13.0,67,0.00,,CLR,0.00,VWS V14.01,2013-04-24 21:09:00,
2013-04-24 17:21:00,55.4,44.6,29.90,SSW,210,13.0,13.0,67,0.00,,CLR,0.00,VWS V14.01,2013-04-24 21:21:00,
2013-04-24 17:42:00,55.4,44.6,29.90,SSW,210,13.0,13.0,67,0.00,,CLR,0.00,VWS V14.01,2013-04-24 21:42:00,
2013-04-24 17:52:00,55.4,44.6,29.90,SSW,210,13.0,13.0,67,0.00,,CLR,0.00,VWS V14.01,2013-04-24 21:52:00,
2013-04-24 17:56:00,51.8,44.5,29.92,SW,220,9.0,9.0,76,0.00,,CLR,0.00,VWS V14.01,2013-04-24 21:56:00,
2013-04-24 17:57:00,55.4,44.6,29.90,SSW,210,13.0,13.0,67,0.00,,CLR,0.00,VWS V14.01,2013-04-24 21:57:00,
2013-04-24 18:02:00,51.8,44.5,29.92,SW,220,9.0,9.0,76,0.00,,CLR,0.00,VWS V14.01,2013-04-24 22:02:00,
2013-04-24 18:20:00,51.8,44.5,29.92,SW,220,9.0,9.0,76,0.00,,CLR,0.00,VWS V14.01,2013-04-24 22:20:00,
2013-04-24 18:27:00,51.8,44.5,29.92,SW,220,9.0,9.0,76,0.00,,CLR,0.00,VWS V14.01,2013-04-24 22:27:00,
2013-04-24 18:52:00,51.8,44.5,29.92,SW,220,9.0,9.0,76,0.00,,CLR,0.00,VWS V14.01,2013-04-24 22:52:00,
2013-04-24 18:56:00,48.2,44.5,29.92,SSW,210,9.0,9.0,87,0.00,,,0.00,VWS V14.01,2013-04-24 22:56:00,
2013-04-24 18:57:00,51.8,44.5,29.92,SW,220,9.0,9.0,76,0.00,,CLR,0.00,VWS V14.01,2013-04-24 22:57:00,
2013-04-24 19:02:00,48.2,44.5,29.92,SSW,210,9.0,9.0,87,0.00,,,0.00,VWS V14.01,2013-04-24 23:02:00,
2013-04-24 19:18:00,48.2,44.5,29.92,SW,220,16.0,16.0,87,0.00,,,0.00,VWS V14.01,2013-04-24 23:18:00,
2013-04-24 19:19:00,48.2,44.5,29.92,SSW,210,9.0,9.0,87,0.00,,,0.00,VWS V14.01,2013-04-24 23:19:00,
2013-04-24 19:24:00,48.2,44.5,29.92,SW,220,16.0,16.0,87,0.00,,,0.00,VWS V14.01,2013-04-24 23:24:00,
2013-04-24 19:26:00,48.2,44.5,29.91,SSW,210,11.0,11.0,87,0.00,,,0.00,VWS V14.01,2013-04-24 23:26:00,
2013-04-24 19:29:00,48.2,44.5,29.91,SSW,210,11.0,16.0,87,0.00,,,0.00,VWS V14.01,2013-04-24 23:29:00,
2013-04-24 19:34:00,48.2,44.5,29.91,SSW,210,11.0,11.0,87,0.00,,,0.00,VWS V14.01,2013-04-24 23:34:00,
2013-04-24 19:56:00,32.0,32.0,29.91,South,190,11.0,11.0,100,0.00,,,0.00,VWS V14.01,2013-04-24 23:56:00,
2013-04-24 19:59:00,32.0,32.0,29.91,South,190,11.0,11.0,100,0.00,,,0.00,VWS V14.01,2013-04-24 23:59:00,
2013-04-24 20:04:00,32.0,32.0,29.91,South,190,11.0,11.0,100,0.00,,,0.00,VWS V14.01,2013-04-25 00:04:00,
2013-04-24 20:09:00,32.0,32.0,29.92,SSW,200,13.0,13.0,100,0.00,,,0.00,VWS V14.01,2013-04-25 00:09:00,
2013-04-24 20:12:00,32.0,32.0,29.92,SSW,200,13.0,13.0,100,0.00,,,0.00,VWS V14.01,2013-04-25 00:12:00,
2013-04-24 20:17:00,32.0,32.0,29.92,SSW,200,13.0,13.0,100,0.00,,,0.00,VWS V14.01,2013-04-25 00:17:00,
2013-04-24 20:27:00,32.0,32.0,29.92,SSW,200,13.0,13.0,100,0.00,,,0.00,VWS V14.01,2013-04-25 00:27:00,
2013-04-24 20:29:00,32.0,32.0,29.92,South,190,9.0,9.0,100,0.00,,,0.00,VWS V14.01,2013-04-25 00:29:00,
2013-04-24 20:32:00,32.0,32.0,29.92,South,190,9.0,13.0,100,0.00,,,0.00,VWS V14.01,2013-04-25 00:32:00,
2013-04-24 20:37:00,32.0,32.0,29.92,South,190,9.0,9.0,100,0.00,,,0.00,VWS V14.01,2013-04-25 00:37:00,
2013-04-24 20:39:00,32.0,32.0,29.92,SSW,200,11.0,11.0,100,0.00,,,0.00,VWS V14.01,2013-04-25 00:39:00,
2013-04-24 20:42:00,32.0,32.0,29.92,SSW,200,11.0,11.0,100,0.00,,,0.00,VWS V14.01,2013-04-25 00:42:00,
2013-04-24 20:47:00,32.0,32.0,29.92,SSW,200,11.0,11.0,100,0.00,,,0.00,VWS V14.01,2013-04-25 00:47:00,
2013-04-24 20:52:00,32.0,32.0,29.92,SSW,200,11.0,11.0,100,0.00,,,0.00,VWS V14.01,2013-04-25 00:52:00,
2013-04-24 20:56:00,32.0,32.0,29.93,South,190,10.0,10.0,100,0.00,,,0.00,VWS V14.01,2013-04-25 00:56:00,
2013-04-24 20:59:00,32.0,32.0,29.93,South,190,10.0,11.0,100,0.00,,,0.00,VWS V14.01,2013-04-25 00:59:00,
2013-04-24 21:04:00,32.0,32.0,29.93,South,190,10.0,10.0,100,0.00,,,0.00,VWS V14.01,2013-04-25 01:04:00,
2013-04-24 21:26:00,32.0,32.0,29.93,South,190,10.0,10.0,100,0.00,,,0.00,VWS V14.01,2013-04-25 01:26:00,
2013-04-24 21:33:00,32.0,32.0,29.93,South,190,10.0,10.0,100,0.00,,,0.00,VWS V14.01,2013-04-25 01:33:00,
2013-04-24 21:47:00,32.0,32.0,29.96,SSW,210,10.0,10.0,100,0.00,,,0.00,VWS V14.01,2013-04-25 01:47:00,
2013-04-24 21:50:00,32.0,32.0,29.96,SSW,210,10.0,10.0,100,0.00,,,0.00,VWS V14.01,2013-04-25 01:50:00,
2013-04-24 21:55:00,32.0,32.0,29.96,SSW,210,10.0,10.0,100,0.00,,,0.00,VWS V14.01,2013-04-25 01:55:00,
2013-04-24 21:56:00,32.0,32.0,29.95,SSW,200,12.0,12.0,100,0.00,,,0.00,VWS V14.01,2013-04-25 01:56:00,
2013-04-24 22:00:00,32.0,32.0,29.95,SSW,200,12.0,12.0,100,0.00,,,0.00,VWS V14.01,2013-04-25 02:00:00,
2013-04-24 22:03:00,32.0,32.0,29.95,SSW,200,11.0,11.0,100,0.00,,,0.00,VWS V14.01,2013-04-25 02:03:00,
2013-04-24 22:05:00,32.0,32.0,29.95,SSW,200,12.0,12.0,100,0.00,,,0.00,VWS V14.01,2013-04-25 02:05:00,
2013-04-24 22:10:00,32.0,32.0,29.95,SSW,200,11.0,11.0,100,0.00,,,0.00,VWS V14.01,2013-04-25 02:10:00,
2013-04-24 22:20:00,32.0,32.0,29.94,South,190,11.0,11.0,100,0.00,,,0.00,VWS V14.01,2013-04-25 02:20:00,
2013-04-24 22:23:00,32.0,32.0,29.94,South,190,11.0,11.0,100,0.00,,,0.00,VWS V14.01,2013-04-25 02:23:00,
2013-04-24 22:28:00,32.0,32.0,29.94,South,190,11.0,11.0,100,0.00,,,0.00,VWS V14.01,2013-04-25 02:28:00,
2013-04-24 22:45:00,32.0,32.0,29.94,South,190,11.0,11.0,100,0.00,,,0.00,VWS V14.01,2013-04-25 02:45:00,
2013-04-24 22:56:00,32.0,32.0,29.94,SSW,200,10.0,10.0,100,0.00,,,0.00,VWS V14.01,2013-04-25 02:56:00,
2013-04-24 22:59:00,32.0,32.0,29.94,SSW,200,10.0,11.0,100,0.00,,,0.00,VWS V14.01,2013-04-25 02:59:00,
2013-04-24 23:04:00,32.0,32.0,29.94,SSW,200,10.0,10.0,100,0.00,,,0.00,VWS V14.01,2013-04-25 03:04:00,
2013-04-24 23:17:00,32.0,32.0,29.94,SSW,200,10.0,10.0,100,0.00,,,0.00,VWS V14.01,2013-04-25 03:17:00,
2013-04-24 23:24:00,32.0,32.0,29.93,SSW,210,9.0,9.0,100,0.00,,,0.00,VWS V14.01,2013-04-25 03:24:00,
2013-04-24 23:27:00,32.0,32.0,29.94,SSW,200,10.0,10.0,100,0.00,,,0.00,VWS V14.01,2013-04-25 03:27:00,
2013-04-24 23:32:00,32.0,32.0,29.93,SSW,210,9.0,9.0,100,0.00,,,0.00,VWS V14.01,2013-04-25 03:32:00,
2013-04-24 23:35:00,32.0,32.0,29.93,SSW,210,11.0,11.0,100,0.00,,,0.00,VWS V14.01,2013-04-25 03:35:00,
2013-04-24 23:38:00,32.0,32.0,29.93,SSW,210,11.0,11.0,100,0.00,,,0.00,VWS V14.01,2013-04-25 03:38:00,
2013-04-24 23:43:00,32.0,32.0,29.93,SSW,210,11.0,11.0,100,0.00,,,0.00,VWS V14.01,2013-04-25 03:43:00,
2013-04-24 23:46:00,32.0,32.0,29.93,SSW,210,11.0,11.0,100,0.00,,,0.00,VWS V14.01,2013-04-25 03:46:00,
2013-04-24 23:49:00,32.0,32.0,29.93,SSW,210,11.0,11.0,100,0.00,,,0.00,VWS V14.01,2013-04-25 03:49:00,
2013-04-24 23:54:00,32.0,32.0,29.93,SSW,210,11.0,11.0,100,0.00,,,0.00,VWS V14.01,2013-04-25 03:54:00,
2013-04-24 23:56:00,32.0,32.0,29.93,SSW,200,8.0,8.0,100,0.00,,,0.00,VWS V14.01,2013-04-25 03:56:00,
2013-04-24 23:59:00,32.0,32.0,29.93,SSW,200,8.0,11.0,100,0.00,,,0.00,VWS V14.01,2013-04-25 03:59:00,